AU298 Weather Reports


time (UTC)temp
F
wind
direction
speed
knots
gust
knots
rain 1hr
in
rain 24hr
in
rain mn
in
humidity
%
barometer
mb
20260503010011 57 311 1.7 0.9 0.00 0.00 0.00 48 1009.4
20260503005511 57 314 7.0 0.9 0.00 0.00 0.00 47 1009.2
20260503005012 57 291 2.6 0.9 0.00 0.00 0.00 45 1009.2
20260503003512 58 285 0.9 0.0 0.00 0.00 0.00 41 1009.2
20260503003011 58 274 0.0 0.0 0.00 0.00 0.00 44 1009.3
20260503002511 58 250 0.0 0.0 0.00 0.00 0.00 41 1009.3
20260503002011 58 279 0.0 0.0 0.00 0.00 0.00 41 1009.3
20260503001511 58 268 0.9 0.0 0.00 0.00 0.00 41 1009.4
20260503001011 58 239 0.9 0.9 0.00 0.00 0.00 41 1009.5
20260503000512 59 308 0.9 0.9 0.00 0.00 0.00 40 1009.5
20260503000011 59 326 0.9 0.9 0.00 0.00 0.00 39 1009.5
20260502235511 59 289 1.7 0.9 0.00 0.00 0.00 40 1009.6
20260502235011 59 301 0.9 0.9 0.00 0.00 0.00 39 1009.7
20260502234511 59 325 1.7 0.9 0.00 0.00 0.00 40 1009.8
20260502233511 59 302 0.9 0.9 0.00 0.00 0.00 38 1009.8
20260502233011 59 293 5.2 0.9 0.00 0.00 0.00 38 1009.9
20260502232511 59 297 5.2 0.9 0.00 0.00 0.00 37 1010.0
20260502231511 60 214 0.0 0.9 0.00 0.00 0.00 36 1009.9
20260502231011 60 192 0.9 0.9 0.00 0.00 0.00 36 1010.0
20260502230511 60 210 0.0 0.0 0.00 0.00 0.00 37 1010.1
20260502225511 60 141 0.0 0.0 0.00 0.00 0.00 36 1010.2
20260502225011 60 167 0.9 0.0 0.00 0.00 0.00 36 1010.2
20260502224511 60 190 2.6 0.0 0.00 0.00 0.00 35 1010.3
20260502224011 60 293 1.7 0.9 0.00 0.00 0.00 35 1010.4
20260502223512 60 264 1.7 0.9 0.00 0.00 0.00 36 1010.5
20260502223012 60 303 5.2 0.9 0.00 0.00 0.00 35 1010.5
20260502222511 60 264 1.7 0.9 0.00 0.00 0.00 35 1010.6
20260502222012 59 220 0.9 0.9 0.00 0.00 0.00 38 1010.6
20260502221512 59 295 2.6 0.9 0.00 0.00 0.00 36 1010.7
20260502221011 60 246 2.6 0.9 0.00 0.00 0.00 37 1010.8
20260502220511 59 323 4.3 0.9 0.00 0.00 0.00 36 1010.8
20260502220012 59 242 0.0 0.9 0.00 0.00 0.00 36 1010.8
20260502215011 59 263 1.7 0.9 0.00 0.00 0.00 35 1011.0
20260502214511 60 230 9.6 0.9 0.00 0.00 0.00 35 1011.1
20260502214011 60 309 2.6 0.9 0.00 0.00 0.00 36 1011.0
20260502213511 60 238 2.6 0.9 0.00 0.00 0.00 35 1011.1
20260502213011 59 160 1.7 0.9 0.00 0.00 0.00 36 1011.2
20260502212511 59 221 3.5 0.9 0.00 0.00 0.00 36 1011.2
20260502212011 59 248 2.6 0.9 0.00 0.00 0.00 35 1011.3
20260502211012 60 243 4.3 0.9 0.00 0.00 0.00 34 1011.5
20260502210511 60 288 3.5 0.9 0.00 0.00 0.00 35 1011.5
20260502205512 59 226 4.3 0.9 0.00 0.00 0.00 35 1011.6
20260502204512 59 262 5.2 0.9 0.00 0.00 0.00 35 1011.8
20260502204011 59 221 7.8 0.9 0.00 0.00 0.00 34 1011.9
20260502203511 59 309 2.6 0.9 0.00 0.00 0.00 36 1011.9
20260502203011 58 319 2.6 0.9 0.00 0.00 0.00 35 1012.0
20260502202512 59 304 5.2 0.9 0.00 0.00 0.00 34 1012.3
20260502202011 58 290 1.7 0.9 0.00 0.00 0.00 34 1012.3
20260502201511 59 326 4.3 0.9 0.00 0.00 0.00 34 1012.5
20260502201011 60 25 0.0 0.9 0.00 0.00 0.00 33 1012.6
20260502200511 59 292 0.0 0.9 0.00 0.00 0.00 35 1012.8
20260502200011 57 334 2.6 0.9 0.00 0.00 0.00 34 1012.9
20260502195511 57 294 2.6 0.9 0.00 0.00 0.00 36 1013.0
20260502195011 57 255 2.6 0.9 0.00 0.00 0.00 35 1013.1
20260502194511 57 263 5.2 0.9 0.00 0.00 0.00 35 1013.2
20260502194011 58 255 7.0 1.7 0.00 0.00 0.00 34 1013.2
20260502193512 58 231 5.2 1.7 0.00 0.00 0.00 34 1013.3
20260502193012 59 241 4.3 1.7 0.00 0.00 0.00 35 1013.4
20260502192511 57 179 3.5 0.9 0.00 0.00 0.00 34 1013.5
20260502192011 58 234 7.8 1.7 0.00 0.00 0.00 35 1013.6
20260502191511 57 182 0.9 1.7 0.00 0.00 0.00 34 1013.6
20260502191011 56 294 4.3 0.9 0.00 0.00 0.00 34 1013.8
20260502190511 58 221 5.2 0.9 0.00 0.00 0.00 34 1013.8
20260502185512 56 290 3.5 0.9 0.00 0.00 0.00 34 1014.0
20260502185011 56 195 4.3 0.9 0.00 0.00 0.00 35 1014.0
20260502184511 57 130 1.7 0.9 0.00 0.00 0.00 32 1014.0
20260502184011 56 160 5.2 0.9 0.00 0.00 0.00 34 1014.0
20260502183512 56 175 3.5 0.9 0.00 0.00 0.00 34 1014.1
20260502183011 56 198 4.3 0.9 0.00 0.00 0.00 33 1014.2
20260502182511 56 149 1.7 0.9 0.00 0.00 0.00 33 1014.3
20260502182011 57 244 6.1 0.9 0.00 0.00 0.00 34 1014.4
20260502181511 56 148 1.7 0.9 0.00 0.00 0.00 34 1014.3
20260502181011 56 215 0.9 0.9 0.00 0.00 0.00 33 1014.5
20260502170510 53 217 0.0 0.9 0.00 0.00 0.00 35 1015.7
20260502164011 52 289 1.7 0.9 0.00 0.00 0.00 36 1016.4
20260502163511 53 317 1.7 0.0 0.00 0.00 0.00 36 1016.4
20260502163011 52 132 1.7 0.9 0.00 0.00 0.00 37 1016.5
20260502162511 51 154 2.6 0.9 0.00 0.00 0.00 36 1016.6
20260502162012 51 141 4.3 0.9 0.00 0.00 0.00 37 1016.7
20260502161011 51 272 0.0 0.9 0.00 0.00 0.00 38 1016.8
20260502160511 51 316 0.0 0.9 0.00 0.00 0.00 41 1016.8
20260502152011 49 276 2.6 0.9 0.00 0.00 0.00 37 1017.5
20260502151511 49 325 1.7 0.9 0.00 0.00 0.00 38 1017.6
20260502151011 49 316 1.7 0.9 0.00 0.00 0.00 39 1017.7
20260502150510 48 319 1.7 0.9 0.00 0.00 0.00 39 1017.8
20260502130511 41 250 0.0 0.9 0.00 0.00 0.00 58 1018.1
20260502123511 39 225 0.0 0.0 0.00 0.00 0.00 55 1018.1
20260502123010 38 219 0.0 0.0 0.00 0.00 0.00 57 1018.1
20260502122011 37 233 0.0 0.0 0.00 0.00 0.00 59 1018.1
20260502121510 37 239 0.0 0.0 0.00 0.00 0.00 58 1018.1
20260502120511 35 231 0.0 0.0 0.00 0.00 0.00 61 1018.2
20260502115511 34 231 0.0 0.0 0.00 0.00 0.00 62 1018.2
20260502115011 34 231 0.0 0.0 0.00 0.00 0.00 63 1018.2
20260502114511 33 205 0.0 0.0 0.00 0.00 0.00 64 1018.3
20260502114010 33 204 0.0 0.0 0.00 0.00 0.00 65 1018.4
20260502113511 33 204 0.0 0.0 0.00 0.00 0.00 66 1018.4
20260502113011 33 204 0.0 0.0 0.00 0.00 0.00 67 1018.4
20260502112511 32 221 0.0 0.0 0.00 0.00 0.00 68 1018.4
20260502112011 31 221 0.0 0.0 0.00 0.00 0.00 68 1018.4
20260502111511 31 221 0.0 0.0 0.00 0.00 0.00 68 1018.4
20260502110511 31 211 0.0 0.0 0.00 0.00 0.00 69 1018.2
20260502110010 31 211 0.0 0.0 0.00 0.00 0.00 71 1018.2
20260502105511 31 211 0.0 0.0 0.00 0.00 0.00 72 1018.2
20260502105010 31 211 0.0 0.0 0.00 0.00 0.00 71 1018.3
20260502104511 31 211 0.0 0.0 0.00 0.00 0.00 70 1018.3
20260502104010 31 211 0.0 0.0 0.00 0.00 0.00 69 1018.3
20260502103511 32 211 0.0 0.0 0.00 0.00 0.00 69 1018.3
20260502103010 32 208 0.0 0.0 0.00 0.00 0.00 68 1018.2
20260502102511 32 209 0.0 0.0 0.00 0.00 0.00 68 1018.4
20260502102011 32 200 0.0 0.0 0.00 0.00 0.00 67 1018.4
20260502101011 31 191 0.0 0.0 0.00 0.00 0.00 70 1018.4
20260502100511 31 190 0.0 0.0 0.00 0.00 0.00 73 1018.5
20260502091511 31 190 0.0 0.0 0.00 0.00 0.00 80 1018.6
20260502091011 29 190 0.0 0.0 0.00 0.00 0.00 74 1018.5
20260502090511 29 191 0.0 0.0 0.00 0.00 0.00 74 1018.5
20260502071511 33 203 0.0 0.0 0.00 0.00 0.00 70 1019.2
20260502071011 33 203 0.0 0.0 0.00 0.00 0.00 71 1019.1
20260502070510 32 155 0.0 0.0 0.00 0.00 0.00 75 1019.3
20260502070012 33 155 0.0 0.0 0.00 0.00 0.00 72 1019.2
20260502065511 33 155 1.7 0.0 0.00 0.00 0.00 71 1019.3
20260502065011 33 148 0.0 0.0 0.00 0.00 0.00 69 1019.4
20260502064511 34 62 0.0 0.0 0.00 0.00 0.00 68 1019.3
20260502064010 35 62 0.0 0.0 0.00 0.00 0.00 57 1019.4
20260502063511 34 62 0.0 0.0 0.00 0.00 0.00 59 1019.4
20260502062510 33 62 0.0 0.0 0.00 0.00 0.00 69 1019.5
20260502062010 34 62 0.0 0.0 0.00 0.00 0.00 62 1019.4
20260502061011 34 62 0.0 0.0 0.00 0.00 0.00 60 1019.5
20260502060011 34 62 0.0 0.0 0.00 0.00 0.00 59 1019.5
20260502055510 34 62 0.0 0.0 0.00 0.00 0.00 54 1019.6
20260502055011 34 62 0.0 0.0 0.00 0.00 0.00 57 1019.6
20260502054511 34 62 0.0 0.0 0.00 0.00 0.00 58 1019.6
20260502054010 34 62 0.0 0.0 0.00 0.00 0.00 54 1019.6
20260502053511 35 62 0.0 0.0 0.00 0.00 0.00 53 1019.6
20260502052510 36 62 0.0 0.0 0.00 0.00 0.00 51 1019.6
20260502051510 35 62 0.0 0.0 0.00 0.00 0.00 51 1019.6
20260502051011 36 62 0.0 0.0 0.00 0.00 0.00 50 1019.7
20260502050511 37 62 0.0 0.0 0.00 0.00 0.00 48 1019.7
20260502050011 38 62 0.0 0.0 0.00 0.00 0.00 48 1019.7
20260502045510 37 62 0.0 0.0 0.00 0.00 0.00 50 1019.7
20260502044010 38 62 0.0 0.0 0.00 0.00 0.00 48 1019.8
20260502043511 37 62 0.0 0.0 0.00 0.00 0.00 52 1019.8
20260502043010 37 62 0.0 0.0 0.00 0.00 0.00 52 1019.8
20260502042510 38 62 0.0 0.0 0.00 0.00 0.00 50 1019.9
20260502042011 39 62 0.0 0.0 0.00 0.00 0.00 50 1019.9
20260502041511 39 62 0.0 0.0 0.00 0.00 0.00 49 1019.9
20260502041010 39 62 0.0 0.0 0.00 0.00 0.00 51 1019.9
20260502040511 37 62 0.0 0.0 0.00 0.00 0.00 57 1019.9
20260502040011 36 62 0.0 0.0 0.00 0.00 0.00 60 1019.9
20260502035510 36 62 0.0 0.0 0.00 0.00 0.00 57 1020.0
20260502035011 37 62 0.0 0.0 0.00 0.00 0.00 58 1019.9
20260502034510 38 62 0.0 0.0 0.00 0.00 0.00 55 1020.0
20260502034010 39 62 0.0 0.0 0.00 0.00 0.00 50 1020.0
20260502033510 39 62 0.0 0.0 0.00 0.00 0.00 50 1020.0
20260502033010 40 62 0.0 0.0 0.00 0.00 0.00 50 1020.0
20260502032511 40 62 0.0 0.0 0.00 0.00 0.00 51 1020.1
20260502032011 40 62 0.0 0.0 0.00 0.00 0.00 52 1020.0
20260502031511 40 62 0.0 0.0 0.00 0.00 0.00 52 1020.0
20260502031011 41 62 0.0 0.0 0.00 0.00 0.00 50 1020.0
20260502030510 41 62 0.0 0.0 0.00 0.00 0.00 51 1020.0
20260502030011 39 62 0.0 0.0 0.00 0.00 0.00 58 1020.0
20260502025510 38 62 0.0 0.0 0.00 0.00 0.00 63 1020.0
20260502025011 38 62 0.0 0.0 0.00 0.00 0.00 63 1020.0
20260502024511 40 315 0.0 0.0 0.00 0.00 0.00 60 1020.1
20260502024010 40 315 0.0 0.0 0.00 0.00 0.00 53 1020.0
20260502023511 40 315 0.0 0.0 0.00 0.00 0.00 63 1020.0
20260502023010 40 315 0.0 0.0 0.00 0.00 0.00 53 1020.1
20260502022510 41 315 0.0 0.0 0.00 0.00 0.00 49 1019.9
20260502022011 41 315 0.0 0.0 0.00 0.00 0.00 47 1020.0
20260502021511 43 356 0.0 0.0 0.00 0.00 0.00 45 1020.0
20260502020510 43 19 0.0 0.0 0.00 0.00 0.00 43 1019.6
20260502020011 43 19 0.0 0.0 0.00 0.00 0.00 43 1019.7
20260502015511 43 19 0.0 0.0 0.00 0.00 0.00 44 1019.7
20260502014511 43 20 0.0 0.0 0.00 0.00 0.00 43 1019.7
20260502014011 44 20 0.0 0.0 0.00 0.00 0.00 42 1019.5
20260502013511 44 20 0.0 0.0 0.00 0.00 0.00 41 1019.5
20260502013011 44 20 0.0 0.0 0.00 0.00 0.00 41 1019.4
20260502012511 45 19 0.0 0.0 0.00 0.00 0.00 40 1019.4
20260502012012 45 26 0.0 0.0 0.00 0.00 0.00 41 1019.4
20260502011512 46 339 0.0 0.0 0.00 0.00 0.00 40 1019.4
20260502011011 46 339 0.0 0.0 0.00 0.00 0.00 39 1019.3
20260502010512 47 339 0.0 0.0 0.00 0.00 0.00 38 1019.3